AQUA

Last updated on Mon Sep 21 2026 00:02:09 GMT+0000 (Coordinated Universal Time)

1 27424U 02022A 26263.59836728 .00000453 00000+0 99792-4 0 9993 2 27424 98.4402 234.8441 0001462 65.0566 66.2485 14.62207290297210
UTC large
Height (km)
Speed (km/s)
/
Latitude / Longitude
Inclination (degrees)
Orbital Period (minutes)
Azimuth
Elevation
Range (km)
Doppler Factor

Next 0 passes for location: London (51.5072 / 0.1276)

No passes found over London.
AQUA